Flag for U.S.A. Weather past 2 weeks in Houston, Texas, U.S.A.

Now
60 °F

Passing clouds.


Feels Like: 60 °F
Forecast: 58 / 79 °F
Wind: 5 mph from North

Location: Houston Hobby Airport


UV Index: 5 (Moderate)

Visibility: 10 mi


Pressure: 30.14 "Hg

Humidity: 80%

Dew point: 54 °F

Location of HoustonLocation

Historic Weather in Houston

°F

Houston temperature yesterday

Maximum temperature yesterday: 69 °F (at 12:53 PM)
Minimum temperature yesterday: 60 °F (at 12:53 AM)
Average temperature yesterday: 64 °F

Past Weeks' High & Low Weather Summary

 TemperatureHumidityPressure
High80 °F (Apr 10, 2:53 PM)97% (Apr 4, 1:53 AM)30.32 "Hg (Apr 4, 1:53 AM)
Low43 °F (Apr 15, 6:53 AM)19% (Apr 8, 5:53 PM)29.64 "Hg (Apr 6, 3:53 PM)
Average65 °F68%30.01 "Hg
* Reported Apr 3 6:00 AM — Apr 18 5:53 AM, Houston, Weather by CustomWeather, © 2014

Note: Actual official high and low records may vary slightly from our data, if they occured in-between our weather recording intervals... More about our weather records

Advertising

Historic Weather Conditions — Data for Previous 24 hours

 ConditionsComfort  
Time TempWeatherWind HumidityBarometerVisibility
5:53 AM
Apr 18
60 °FPassing clouds.5 mph80%30.14 "Hg10 mi
4:53 AM61 °FMostly cloudy.5 mph78%30.15 "Hg10 mi
3:53 AM61 °FPassing clouds.7 mph78%30.13 "Hg10 mi
2:53 AM61 °FPassing clouds.6 mph78%30.12 "Hg10 mi
1:53 AM61 °FPassing clouds.7 mph78%30.14 "Hg10 mi
12:53 AM60 °FPassing clouds.6 mph78%30.15 "Hg10 mi
11:53 PM
Apr 17
63 °FPassing clouds.6 mph73%30.16 "Hg10 mi
10:53 PM63 °FPassing clouds.8 mph70%30.15 "Hg10 mi
9:53 PM64 °FPartly cloudy.7 mph68%30.15 "Hg10 mi
8:53 PM64 °FOvercast.9 mph70%30.14 "Hg10 mi
7:53 PM64 °FOvercast.12 mph70%30.11 "Hg10 mi
6:53 PM66 °FOvercast.8 mph68%30.11 "Hg10 mi
5:53 PM66 °FOvercast.9 mph65%30.09 "Hg10 mi
4:53 PM67 °FMostly cloudy.13 mph66%30.08 "Hg10 mi
3:53 PM67 °FPartly sunny.12 mph66%30.09 "Hg10 mi
2:53 PM68 °FBroken clouds.10 mph68%30.10 "Hg10 mi
1:53 PM69 °FBroken clouds.12 mph66%30.11 "Hg10 mi
12:53 PM69 °FScattered clouds.12 mph68%30.11 "Hg10 mi
11:53 AM65 °FOvercast.9 mph78%30.13 "Hg10 mi
10:53 AM65 °FPartly sunny.16 mph78%30.11 "Hg10 mi
9:53 AM61 °FLight rain. Broken clouds.10 mph87%30.07 "Hg10 mi
8:53 AM60 °FThunderstorms. Overcast.12 mph86%30.06 "Hg10 mi
7:53 AM61 °FMostly cloudy.7 mph81%30.06 "Hg10 mi
6:53 AM61 °FPartly cloudy.8 mph81%30.06 "Hg10 mi
Weather by CustomWeather, © 2014

See weather overview